[[{"header":{"parameterUnit":"m.s-1","parameterCategory":1,"la1":30.2991,"la2":30.254,"lo1":-89.0895,"lo2":-89.0444,"dy":0.0017,"dx":0.0017,"nx":28,"ny":28,"refTime":"2024-02-24T09:00:00:Z","depth":0,"parameterNumber":2,"parameterNumberName":"U-component_of_WINDS"},"data":[0,0,0,0,0,0,0,0,0,0,0,0,0,0,0,0,0,0,0,0,0,0,0,0,0,0,0,0,0,0,0,0,0,0,0,0,0,0,0,0,0,0,0,0,0,0,0,0,0,0,0,0,0,0,0,0,0,0,4.2909,4.2909,0,4.293,4.293,4.293,4.2912,4.2912,4.2911,4.291,4.2931,4.2932,4.2933,0,0,0,0,0,0,0,0,0,0,0,0,0,4.2856,4.2857,4.2909,4.2909,4.291,4.293,4.293,4.293,4.2913,4.2912,4.2911,4.291,4.293,4.2932,4.2933,0,0,0,0,0,0,0,0,0,0,0,0,0,4.2878,4.2858,4.2909,4.2903,4.2903,4.293,4.293,4.293,4.2913,4.2912,4.2911,4.291,4.293,4.2931,4.2933,4.2966,0,0,4.2939,4.294,0,0,0,0,0,0,0,0,4.2877,4.288,4.2904,4.2904,4.2903,4.2917,4.2919,4.2942,4.2913,4.2909,4.291,4.2909,4.2927,4.2929,4.2935,4.2967,4.2968,4.2939,4.294,4.2941,4.2941,0,0,0,0,0,0,0,4.2876,4.2879,4.2917,4.2904,4.2904,4.29,4.2902,4.2923,4.2924,4.2909,4.2908,4.2911,4.2927,4.2934,4.2936,4.2969,4.2939,4.2941,4.2942,4.2942,4.3034,4.3035,0,0,0,0,0,0,4.2875,4.2878,4.2916,4.2918,4.2887,4.2902,4.2904,4.2914,4.2924,4.2924,4.2912,4.291,4.2931,4.2933,4.2936,4.2979,4.2941,4.2943,4.2944,4.3033,4.3034,4.3036,0,0,0,0,0,0,4.2874,4.2878,4.2916,4.2898,4.2902,4.2904,4.2915,4.2915,4.2922,4.2925,4.2926,4.2918,4.293,4.2934,4.296,4.2979,4.2943,4.2945,4.3031,4.3033,4.3035,4.3062,0,0,0,0,0,0,4.2872,4.2878,4.289,4.2898,4.2903,4.2939,4.2916,4.2916,4.2925,4.2923,4.2932,4.2932,4.293,4.2958,4.2962,4.2981,4.2947,4.3029,4.3032,4.3034,4.3059,4.3065,4.3069,0,0,0,0,0,4.287,4.2895,4.289,4.2895,4.2918,4.294,4.2943,4.2939,4.2927,4.2939,4.2942,4.2932,4.2976,4.296,4.2965,4.2985,4.3028,4.3031,4.3034,4.3057,4.3064,4.3069,0,0,0,0,0,0,4.2887,4.2896,4.2891,4.2919,4.2929,4.2937,4.2952,4.2946,4.2959,4.2956,4.2951,4.2954,4.2982,4.2986,4.2968,4.302,4.3,4.3004,4.3016,4.3022,4.3027,4.3026,4.2948,0,0,0,0,0,4.2895,4.2911,4.2918,4.2943,4.2948,4.295,4.2959,4.2956,4.2966,4.297,4.2974,4.2984,4.3001,4.3012,4.3027,4.306,4.3064,4.3077,4.3081,4.3085,4.3089,4.3111,4.3118,4.3045,4.3045,4.3045,0,0,4.2909,4.2916,4.2927,4.2947,4.2954,4.2972,4.2953,4.2972,4.2986,4.2972,4.2998,4.3003,4.3014,4.3045,4.3059,4.3049,4.311,4.3089,4.3092,4.3094,4.3115,4.3121,4.3128,4.3047,4.3047,4.3047,0,0,4.2946,4.2952,4.2975,4.2984,4.2996,4.2998,4.3003,4.3013,4.3016,4.3042,4.3033,4.305,4.3078,4.3088,4.3096,4.3142,4.3134,4.3147,4.3172,4.3194,4.3199,4.3204,4.3223,4.323,4.3151,4.3151,4.3151,0,4.2963,4.299,4.2988,4.3009,4.3019,4.3009,4.3034,4.3042,4.3058,4.3066,4.3055,4.3093,4.3099,4.3134,4.3146,4.3152,4.316,4.3146,4.3199,4.3204,4.3208,4.3226,4.3233,4.3152,4.3152,4.3152,4.3152,0,4.3012,4.3031,4.3048,4.3067,4.3079,4.3101,4.3103,4.3116,4.3113,4.3117,4.3146,4.3154,4.3173,4.3181,4.3177,4.3216,4.321,4.3199,4.3179,4.3217,4.3234,4.3241,4.3155,4.3154,4.3154,4.3153,0,0,4.3057,4.3077,4.3083,4.3093,4.3108,4.3123,4.3147,4.3166,4.3179,4.3191,4.3212,4.3238,4.323,4.3239,4.3237,4.3256,4.3295,4.3243,4.3243,4.3254,4.3343,4.3352,4.336,4.329,4.3292,4.3292,4.3343,0,4.3097,4.3138,4.3139,4.3177,4.3197,4.319,4.3211,4.3223,4.3228,4.3246,4.3251,4.3271,4.3256,4.3263,4.3281,4.3287,4.3313,4.3283,4.3311,4.3312,4.331,4.3368,4.3377,4.3424,4.3349,4.335,4.3351,0,4.3147,4.3164,4.3205,4.3221,4.3229,4.3248,4.3268,4.3285,4.33,4.3302,4.3316,4.3312,4.3338,4.3318,4.3356,4.3335,4.3347,4.3352,4.3354,4.3357,4.3334,4.3375,4.3439,4.3446,4.3361,4.336,4.3359,0,4.3179,4.3212,4.3242,4.325,4.3268,4.3283,4.3291,4.3305,4.3318,4.3336,4.3345,4.3365,4.3376,4.3392,4.3395,4.338,4.3434,4.3413,4.3438,4.3438,4.345,4.3449,4.3518,4.3456,4.3456,4.3455,4.3455,0,4.3223,4.3249,4.3257,4.3275,4.3306,4.3307,4.3337,4.3344,4.3357,4.3378,4.3373,4.3393,4.3395,4.3416,4.3419,4.3451,4.3456,4.346,4.346,4.3461,4.3461,4.3469,4.3466,4.3457,4.3457,4.3457,4.3456,0,4.3264,4.327,4.3302,4.3319,4.3324,4.3345,4.336,4.3378,4.3384,4.3411,4.3417,4.3426,4.3451,4.3456,4.3485,4.3487,4.3526,4.3523,4.3522,4.3522,4.3547,4.3546,4.3625,4.3637,4.3565,4.3566,4.3566,0,4.3292,4.3312,4.3332,4.3346,4.3356,4.3378,4.3393,4.3396,4.3411,4.3433,4.3449,4.3474,4.3494,4.3535,4.3545,4.3568,4.3566,4.3592,4.3569,4.3571,4.3569,4.3568,4.3572,4.3597,4.3597,4.3598,4.3598,0,4.3343,4.3346,4.3366,4.339,4.3407,4.3425,4.3442,4.3454,4.346,4.3478,4.3505,4.352,4.3552,4.3578,4.3602,4.3611,4.3607,4.3606,4.3614,4.3615,4.3614,4.3617,4.3535,4.3604,4.3603,4.3603,4.3603,4.3603,4.3379,4.3398,4.3416,4.3441,4.3455,4.3472,4.3492,4.3501,4.3523,4.355,4.3551,4.3581,4.3599,4.3631,4.3643,4.3667,4.3659,4.3669,4.3672,4.3674,4.3678,4.361,4.3671,4.3671,4.3671,4.3671,4.3671,0,4.3431,4.3443,4.3466,4.3492,4.3512,4.3507,4.3527,4.3544,4.3571,4.3588,4.361,4.3642,4.3668,4.3681,4.3708,4.3725,4.3724,4.3732,4.3731,4.3734,4.3683,4.3675,4.3732,4.3732,4.3732,4.3732,4.3732,4.3732,4.346,4.3494,4.35,4.3542,4.3554,4.3583,4.3596,4.3613,4.3627,4.3664,4.3686,4.3695,4.3712,4.374,4.3765,4.3769,4.3779,4.3789,4.3791,4.3743,4.3737,4.3731,4.3724,4.3791,4.3791,4.3841,4.3841,4.3842]},{"header":{"parameterUnit":"m.s-1","parameterCategory":1,"la1":30.2991,"la2":30.254,"lo1":-89.0895,"lo2":-89.0444,"dy":0.0017,"dx":0.0017,"nx":28,"ny":28,"refTime":"2024-02-24T09:00:00:Z","depth":0,"parameterNumber":3,"parameterNumberName":"V-component_of_WINDS"},"data":[0,0,0,0,0,0,0,0,0,0,0,0,0,0,0,0,0,0,0,0,0,0,0,0,0,0,0,0,0,0,0,0,0,0,0,0,0,0,0,0,0,0,0,0,0,0,0,0,0,0,0,0,0,0,0,0,0,0,-1.1573,-1.157,0,-1.1322,-1.1319,-1.1316,-1.1339,-1.1342,-1.1346,-1.135,-1.1078,-1.1068,-1.1057,0,0,0,0,0,0,0,0,0,0,0,0,0,-1.2058,-1.2049,-1.1573,-1.157,-1.1567,-1.1323,-1.1319,-1.1316,-1.1338,-1.1343,-1.1347,-1.1352,-1.1082,-1.1069,-1.1056,0,0,0,0,0,0,0,0,0,0,0,0,0,-1.1831,-1.2046,-1.1574,-1.1549,-1.1544,-1.1323,-1.1319,-1.1315,-1.1337,-1.1343,-1.1349,-1.1354,-1.1086,-1.107,-1.1054,-1.0837,0,0,-1.1005,-1.0998,0,0,0,0,0,0,0,0,-1.1844,-1.1813,-1.1556,-1.155,-1.1545,-1.1368,-1.1391,-1.1154,-1.1335,-1.1415,-1.135,-1.1357,-1.1169,-1.1146,-1.1086,-1.0825,-1.0813,-1.1003,-1.0993,-1.0986,-1.0982,0,0,0,0,0,0,0,-1.186,-1.1824,-1.1474,-1.1552,-1.1545,-1.1546,-1.152,-1.1346,-1.1262,-1.1409,-1.141,-1.1381,-1.1167,-1.1102,-1.108,-1.0809,-1.1004,-1.0989,-1.0979,-1.0973,-1.0355,-1.0349,0,0,0,0,0,0,-1.1883,-1.1837,-1.1481,-1.1466,-1.1712,-1.1533,-1.1504,-1.1418,-1.1264,-1.1246,-1.1376,-1.1383,-1.1127,-1.1099,-1.107,-1.0805,-1.0986,-1.0971,-1.0962,-1.0361,-1.0353,-1.0346,0,0,0,0,0,0,-1.1893,-1.1851,-1.1492,-1.1652,-1.1606,-1.1518,-1.1422,-1.141,-1.1345,-1.124,-1.1223,-1.1325,-1.113,-1.1093,-1.0896,-1.0796,-1.0964,-1.0949,-1.0369,-1.0359,-1.035,-1.0273,0,0,0,0,0,0,-1.1907,-1.1855,-1.1775,-1.165,-1.1598,-1.1325,-1.1416,-1.1401,-1.1319,-1.1325,-1.1188,-1.117,-1.1132,-1.092,-1.088,-1.0776,-1.0936,-1.0378,-1.0365,-1.0353,-1.0284,-1.0261,-1.0242,0,0,0,0,0,-1.1925,-1.176,-1.1771,-1.1727,-1.1496,-1.1319,-1.1289,-1.1252,-1.1311,-1.1227,-1.1159,-1.1175,-1.0814,-1.09,-1.0854,-1.0745,-1.0384,-1.0368,-1.0354,-1.0293,-1.0266,-1.0243,0,0,0,0,0,0,-1.187,-1.1743,-1.1753,-1.1545,-1.1443,-1.1324,-1.1217,-1.1224,-1.11,-1.1111,-1.1066,-1.1035,-1.0835,-1.077,-1.0868,-1.0526,-1.0606,-1.0581,-1.0575,-1.0548,-1.0528,-1.0546,-1.0923,0,0,0,0,0,-1.1835,-1.1706,-1.1601,-1.1426,-1.1375,-1.1305,-1.1227,-1.1208,-1.1099,-1.1054,-1.0972,-1.0861,-1.0723,-1.0632,-1.0499,-1.0276,-1.0244,-1.0177,-1.0157,-1.014,-1.0118,-0.9993,-0.9961,-1.0297,-1.0297,-1.0298,0,0,-1.1758,-1.1673,-1.1594,-1.1413,-1.1332,-1.1196,-1.1268,-1.1121,-1.1018,-1.103,-1.084,-1.0775,-1.0649,-1.0437,-1.0339,-1.0376,-1.0019,-1.0121,-1.0109,-1.0095,-0.9974,-0.9942,-0.9914,-1.0287,-1.0289,-1.029,0,0,-1.1549,-1.1473,-1.132,-1.1238,-1.1117,-1.1071,-1.1034,-1.0914,-1.0873,-1.0682,-1.0688,-1.0563,-1.0326,-1.0236,-1.0159,-0.9917,-0.9925,-0.9874,-0.9764,-0.9642,-0.9616,-0.9592,-0.9503,-0.9472,-0.9853,-0.9853,-0.9853,0,-1.1467,-1.1267,-1.1238,-1.109,-1.1009,-1.1019,-1.086,-1.0781,-1.062,-1.0562,-1.0607,-1.0311,-1.0226,-0.9993,-0.9934,-0.9872,-0.9825,-0.9888,-0.9623,-0.9599,-0.9576,-0.9491,-0.9458,-0.9848,-0.9848,-0.9849,-0.9849,0,-1.1172,-1.1033,-1.0922,-1.0772,-1.0679,-1.0525,-1.0469,-1.0377,-1.0366,-1.0315,-1.0119,-1.0019,-0.9865,-0.9809,-0.9795,-0.9572,-0.9599,-0.9634,-0.9713,-0.9539,-0.9458,-0.9425,-0.984,-0.9842,-0.9843,-0.9845,0,0,-1.0918,-1.0757,-1.0716,-1.0648,-1.0516,-1.0404,-1.0251,-1.0106,-1.0026,-0.9915,-0.9782,-0.9583,-0.9615,-0.9528,-0.9504,-0.9397,-0.9209,-0.9445,-0.9441,-0.9403,-0.8954,-0.8927,-0.889,-0.9216,-0.9209,-0.9204,-0.8964,0,-1.0694,-1.0428,-1.0397,-1.0157,-1.0026,-1.0035,-0.99,-0.9802,-0.975,-0.9627,-0.9568,-0.9427,-0.9481,-0.9428,-0.9324,-0.9255,-0.9118,-0.9272,-0.9087,-0.9081,-0.9116,-0.8848,-0.8818,-0.8596,-0.8933,-0.8927,-0.8923,0,-1.0397,-1.0282,-1.0031,-0.9917,-0.986,-0.9741,-0.9605,-0.949,-0.9377,-0.9346,-0.925,-0.924,-0.9076,-0.9165,-0.8937,-0.9043,-0.8965,-0.892,-0.891,-0.8889,-0.8989,-0.8816,-0.8525,-0.8491,-0.8873,-0.8877,-0.8881,0,-1.0234,-1.0017,-0.9838,-0.978,-0.9643,-0.9558,-0.9496,-0.939,-0.9304,-0.9184,-0.9127,-0.8988,-0.891,-0.8801,-0.8752,-0.8822,-0.8526,-0.8611,-0.8492,-0.8493,-0.8426,-0.8431,-0.8116,-0.8381,-0.8382,-0.8382,-0.8383,0,-0.9985,-0.983,-0.9764,-0.9653,-0.9479,-0.9444,-0.9271,-0.9211,-0.9117,-0.8992,-0.899,-0.8871,-0.8816,-0.8687,-0.8648,-0.8463,-0.8429,-0.8396,-0.8387,-0.8395,-0.8398,-0.8341,-0.8354,-0.8374,-0.8375,-0.8377,-0.8379,0,-0.9773,-0.9723,-0.9529,-0.9416,-0.9384,-0.926,-0.9162,-0.9052,-0.9003,-0.8845,-0.8805,-0.8725,-0.8574,-0.8516,-0.833,-0.8303,-0.809,-0.8094,-0.8129,-0.8126,-0.8009,-0.802,-0.7644,-0.7591,-0.7894,-0.7892,-0.7889,0,-0.9617,-0.9498,-0.9375,-0.9294,-0.923,-0.9098,-0.9013,-0.8973,-0.8882,-0.8746,-0.8652,-0.8503,-0.8382,-0.8139,-0.8061,-0.7919,-0.7918,-0.7796,-0.7896,-0.7907,-0.7912,-0.7919,-0.7906,-0.7776,-0.7773,-0.7771,-0.7769,0,-0.9343,-0.9325,-0.9204,-0.9073,-0.8972,-0.8866,-0.8763,-0.8695,-0.8639,-0.8537,-0.8385,-0.8292,-0.8104,-0.7955,-0.7809,-0.774,-0.7742,-0.7739,-0.7703,-0.7708,-0.7733,-0.7715,-0.8076,-0.7746,-0.7749,-0.775,-0.7751,-0.7752,-0.9151,-0.9047,-0.8944,-0.8808,-0.8728,-0.8632,-0.8524,-0.8463,-0.8337,-0.8185,-0.8168,-0.8005,-0.7893,-0.7698,-0.7623,-0.7492,-0.7523,-0.7472,-0.7458,-0.7446,-0.7437,-0.7757,-0.7465,-0.7465,-0.7466,-0.7466,-0.7467,0,-0.8876,-0.8811,-0.8687,-0.8545,-0.8438,-0.8457,-0.8344,-0.8251,-0.8109,-0.8007,-0.7889,-0.7714,-0.7569,-0.7481,-0.7335,-0.7246,-0.7244,-0.7209,-0.7213,-0.7197,-0.7418,-0.7462,-0.7213,-0.7213,-0.7213,-0.7213,-0.7213,-0.7213,-0.8719,-0.8543,-0.8512,-0.8294,-0.8228,-0.8072,-0.8006,-0.7915,-0.7834,-0.7641,-0.7522,-0.7468,-0.737,-0.7217,-0.7084,-0.7062,-0.7006,-0.6968,-0.6948,-0.7155,-0.7181,-0.7206,-0.7248,-0.6957,-0.6957,-0.6737,-0.6735,-0.6733]}]]